User: anonymous   Login
Location: Unspecified
(0.0000°N, 0.0000°E)
Time: 16:39:18
(UTC+02:00)
Language:

Meteor PRIRODA - Orbit

View from above orbital plane
View from above orbital plane
View from above satellite
View from above satellite

Ground track
Ground track

The orbit data is extracted from the following two-line orbital elements,

1 12585U 81065A   16209.50705922  .00000869  00000-0  43876-4 0  9994
2 12585  97.3916 188.4823 0016822  94.7247  18.2804 15.19580969912956
Epoch (UTC): 27 July 2016 12:10:09
Eccentricity: 0.0016822
inclination: 97.3916°
perigee height: 495 km
apogee height: 518 km
right ascension of ascending node: 188.4823°
argument of perigee: 94.7247°
revolutions per day: 15.19580969
mean anomaly at epoch: 18.2804°
orbit number at epoch: 91295

The dashed part of the orbit path shows where the satellite is in the earth's shadow,  

DLR